• In United Kingdom
  • List of Countries
  • For 7 days
  • Water Temperature
  • Satellite Maps
  • Weather Map
  • Weather Widgets
  • user-avatar
    Login

    Hourly Weather São Luís

    Today, 22 September, Saturday

    Time Temperature Precipitation Wind Pressure Humidity
    00:00 +28°C° 0 mm 3 mps 758 mmHg 81%
    01:00 +28°C° 0 mm 3 mps 758 mmHg 82%
    02:00 +27°C° 0 mm 3 mps 757 mmHg 82%
    03:00 +27°C° 0 mm 3 mps 757 mmHg 83%
    04:00 +27°C° 0 mm 3 mps 757 mmHg 83%
    05:00 +27°C° 0 mm 3 mps 757 mmHg 83%
    06:00 +27°C° 0 mm 3 mps 757 mmHg 83%
    07:00 +28°C° 0 mm 4 mps 758 mmHg 77%
    08:00 +30°C° 0 mm 4 mps 758 mmHg 72%
    09:00 +32°C° 0 mm 4 mps 759 mmHg 66%
    10:00 +33°C° 0 mm 4 mps 758 mmHg 61%
    11:00 +34°C° 0 mm 4 mps 758 mmHg 56%
    12:00 +36°C° 0 mm 4 mps 758 mmHg 51%
    13:00 +35°C° 0 mm 4 mps 757 mmHg 51%
    14:00 +35°C° 0 mm 4 mps 756 mmHg 52%
    15:00 +35°C° 0 mm 4 mps 755 mmHg 52%
    16:00 +33°C° 0 mm 4 mps 755 mmHg 58%
    17:00 +32°C° 0 mm 4 mps 755 mmHg 64%
    18:00 +30°C° 0 mm 4 mps 755 mmHg 71%
    19:00 +29°C° 0 mm 4 mps 756 mmHg 74%
    20:00 +29°C° 0 mm 4 mps 756 mmHg 77%
    21:00 +28°C° 0 mm 4 mps 757 mmHg 80%
    22:00 +28°C° 0 mm 4 mps 757 mmHg 81%
    23:00 +28°C° 0 mm 4 mps 757 mmHg 83%

    Tomorrow, 23 September, Sunday

    Time Temperature Precipitation Wind Pressure Humidity
    00:00 +28°C° 0 mm 4 mps 758 mmHg 84%
    01:00 +28°C° 0 mm 4 mps 757 mmHg 84%
    02:00 +28°C° 0 mm 4 mps 757 mmHg 84%
    03:00 +28°C° 0 mm 4 mps 756 mmHg 83%
    04:00 +28°C° 0 mm 4 mps 757 mmHg 83%
    05:00 +28°C° 0 mm 4 mps 757 mmHg 82%
    06:00 +28°C° 0 mm 4 mps 757 mmHg 81%
    07:00 +28°C° 0 mm 4 mps 757 mmHg 78%
    08:00 +29°C° 0 mm 4 mps 758 mmHg 75%
    09:00 +29°C° 0 mm 5 mps 759 mmHg 72%
    10:00 +32°C° 0.1 mm 5 mps 759 mmHg 67%
    11:00 +33°C° 0.1 mm 5 mps 758 mmHg 62%
    12:00 +34°C° 0.1 mm 5 mps 758 mmHg 57%
    13:00 +34°C° 0 mm 5 mps 757 mmHg 58%
    14:00 +34°C° 0 mm 5 mps 757 mmHg 59%
    15:00 +33°C° 0 mm 5 mps 756 mmHg 59%
    16:00 +32°C° 0 mm 5 mps 756 mmHg 64%
    17:00 +30°C° 0 mm 4 mps 756 mmHg 68%
    18:00 +29°C° 0 mm 4 mps 756 mmHg 73%
    19:00 +29°C° 0 mm 4 mps 757 mmHg 75%
    20:00 +28°C° 0 mm 4 mps 757 mmHg 77%
    21:00 +28°C° 0 mm 4 mps 758 mmHg 79%
    22:00 +28°C° 0 mm 4 mps 758 mmHg 80%
    23:00 +28°C° 0 mm 4 mps 758 mmHg 81%

    Day after tomorrow, 24 September, Monday

    Time Temperature Precipitation Wind Pressure Humidity
    00:00 +27°C° 0 mm 4 mps 758 mmHg 82%
    01:00 +28°C° 0 mm 4 mps 758 mmHg 82%
    02:00 +28°C° 0 mm 4 mps 757 mmHg 81%
    03:00 +28°C° 0 mm 4 mps 757 mmHg 81%
    04:00 +28°C° 0 mm 4 mps 757 mmHg 80%
    05:00 +28°C° 0 mm 4 mps 757 mmHg 80%
    06:00 +28°C° 0 mm 4 mps 758 mmHg 79%
    07:00 +28°C° 0.1 mm 4 mps 758 mmHg 77%
    08:00 +29°C° 0.1 mm 4 mps 759 mmHg 74%
    09:00 +29°C° 0.1 mm 4 mps 759 mmHg 72%
    10:00 +32°C° 0.1 mm 4 mps 759 mmHg 66%
    11:00 +33°C° 0.1 mm 4 mps 759 mmHg 61%
    12:00 +35°C° 0.1 mm 4 mps 758 mmHg 55%
    13:00 +34°C° 0 mm 4 mps 757 mmHg 56%
    14:00 +34°C° 0 mm 4 mps 757 mmHg 56%
    15:00 +34°C° 0 mm 4 mps 756 mmHg 57%
    16:00 +33°C° 0 mm 4 mps 756 mmHg 62%
    17:00 +32°C° 0 mm 4 mps 756 mmHg 66%
    18:00 +29°C° 0 mm 4 mps 757 mmHg 71%
    19:00 +29°C° 0 mm 4 mps 757 mmHg 74%
    20:00 +28°C° 0 mm 3 mps 758 mmHg 77%
    21:00 +28°C° 0 mm 3 mps 758 mmHg 80%
    22:00 +28°C° 0 mm 3 mps 758 mmHg 80%
    23:00 +28°C° 0 mm 3 mps 758 mmHg 81%

    25 September, Tuesday

    Time Temperature Precipitation Wind Pressure Humidity
    00:00 +28°C° 0 mm 3 mps 758 mmHg 81%
    01:00 +27°C° 0 mm 4 mps 757 mmHg 82%
    02:00 +27°C° 0 mm 4 mps 757 mmHg 82%
    03:00 +27°C° 0 mm 4 mps 756 mmHg 83%
    04:00 +27°C° 0 mm 4 mps 757 mmHg 82%
    05:00 +28°C° 0 mm 4 mps 757 mmHg 81%
    06:00 +28°C° 0 mm 4 mps 757 mmHg 81%
    07:00 +29°C° 0 mm 4 mps 758 mmHg 76%
    08:00 +30°C° 0 mm 4 mps 758 mmHg 70%
    09:00 +32°C° 0 mm 4 mps 759 mmHg 65%
    10:00 +33°C° 0 mm 4 mps 758 mmHg 61%
    11:00 +34°C° 0 mm 4 mps 757 mmHg 58%
    12:00 +35°C° 0 mm 4 mps 757 mmHg 54%
    13:00 +35°C° 0 mm 4 mps 756 mmHg 55%
    14:00 +35°C° 0 mm 4 mps 756 mmHg 55%
    15:00 +34°C° 0 mm 4 mps 755 mmHg 56%
    16:00 +33°C° 0 mm 4 mps 755 mmHg 62%
    17:00 +32°C° 0 mm 4 mps 755 mmHg 67%
    18:00 +30°C° 0 mm 4 mps 756 mmHg 73%
    19:00 +29°C° 0 mm 4 mps 756 mmHg 75%
    20:00 +29°C° 0 mm 4 mps 757 mmHg 78%
    21:00 +28°C° 0 mm 4 mps 757 mmHg 80%
    22:00 +28°C° 0 mm 4 mps 757 mmHg 81%
    23:00 +28°C° 0 mm 4 mps 757 mmHg 81%

    26 September, Wednesday

    Time Temperature Precipitation Wind Pressure Humidity
    00:00 +28°C° 0 mm 4 mps 757 mmHg 82%
    01:00 +28°C° 0 mm 4 mps 756 mmHg 82%
    02:00 +28°C° 0 mm 4 mps 756 mmHg 82%
    03:00 +28°C° 0 mm 4 mps 756 mmHg 81%
    04:00 +28°C° 0 mm 4 mps 756 mmHg 80%
    05:00 +28°C° 0 mm 5 mps 756 mmHg 79%
    06:00 +28°C° 0 mm 5 mps 757 mmHg 78%
    07:00 +29°C° 0 mm 5 mps 757 mmHg 75%
    08:00 +30°C° 0 mm 5 mps 758 mmHg 71%
    09:00 +30°C° 0 mm 5 mps 758 mmHg 68%
    10:00 +32°C° 0 mm 5 mps 758 mmHg 64%
    11:00 +33°C° 0 mm 5 mps 757 mmHg 61%
    12:00 +34°C° 0 mm 4 mps 757 mmHg 58%
    13:00 +34°C° 0 mm 4 mps 756 mmHg 57%
    14:00 +34°C° 0 mm 4 mps 755 mmHg 56%
    15:00 +34°C° 0 mm 4 mps 755 mmHg 55%
    16:00 +33°C° 0 mm 4 mps 755 mmHg 60%
    17:00 +32°C° 0 mm 4 mps 755 mmHg 65%
    18:00 +30°C° 0 mm 4 mps 755 mmHg 71%
    19:00 +29°C° 0 mm 4 mps 756 mmHg 73%
    20:00 +29°C° 0 mm 4 mps 756 mmHg 75%
    21:00 +28°C° 0 mm 4 mps 757 mmHg 77%
    22:00 +28°C° 0 mm 4 mps 757 mmHg 78%
    23:00 +28°C° 0 mm 4 mps 757 mmHg 79%

    27 September, Thursday

    Time Temperature Precipitation Wind Pressure Humidity
    00:00 +28°C° 0 mm 4 mps 756 mmHg 79%
    01:00 +28°C° 0 mm 4 mps 756 mmHg 79%
    02:00 +28°C° 0 mm 4 mps 756 mmHg 80%
    03:00 +28°C° 0 mm 5 mps 755 mmHg 80%
    04:00 +28°C° 0 mm 5 mps 756 mmHg 79%
    05:00 +28°C° 0 mm 5 mps 756 mmHg 79%
    06:00 +28°C° 0 mm 6 mps 757 mmHg 79%
    07:00 +29°C° 0.1 mm 5 mps 757 mmHg 76%
    08:00 +29°C° 0.1 mm 5 mps 758 mmHg 74%
    09:00 +30°C° 0.1 mm 5 mps 758 mmHg 72%
    10:00 +32°C° 0 mm 5 mps 758 mmHg 65%
    11:00 +34°C° 0 mm 5 mps 758 mmHg 58%
    12:00 +36°C° 0 mm 5 mps 757 mmHg 51%
    13:00 +35°C° 0 mm 5 mps 757 mmHg 52%
    14:00 +35°C° 0 mm 5 mps 756 mmHg 54%
    15:00 +34°C° 0 mm 5 mps 756 mmHg 55%
    16:00 +33°C° 0 mm 5 mps 756 mmHg 60%
    17:00 +32°C° 0 mm 5 mps 756 mmHg 64%
    18:00 +30°C° 0 mm 5 mps 756 mmHg 69%
    19:00 +29°C° 0 mm 5 mps 757 mmHg 71%
    20:00 +29°C° 0 mm 5 mps 757 mmHg 72%
    21:00 +28°C° 0 mm 5 mps 758 mmHg 74%
    22:00 +28°C° 0 mm 5 mps 758 mmHg 75%
    23:00 +28°C° 0 mm 5 mps 758 mmHg 75%
    Show more